Location: Winthrop
(48.4780°N, 120.1850°W)
Time: 17:20:18
(UTC-07:00)

Explorer 7 - Pass Details

Date: 29 January 2023
Orbit: 478 x 657 km, 50.3° (Epoch: 30 March)

Event Time Altitude Azimuth Distance (km) Brightness Sun altitude
Rises 19:29:26 0° 289° (WNW) 2,930 11.7 -25.6°
Reaches altitude 10° 19:31:53 10° 280° (W) 2,041 10.7 -26.0°
Maximum altitude 19:36:08 34° 216° (SW) 1,081 8.5 -26.7°
Enters shadow 19:36:53 32° 196° (SSW) 1,126 8.4 -26.9°
Drops below altitude 10° 19:40:27 10° 152° (SSE) 2,072 - -27.4°
Sets 19:42:58 0° 143° (SE) 2,982 - -27.9°
